Regional Weather Roundup
Issued by NWS

Home | Current Version | Previous Version | Text Only | Print | Product List | Glossary On
Versions: 1 2 3 4 5 6 7 8 9 10 11 12 13 14 15 16 17 18 19 20 21 22 23 24 25 26 27 28
000
ASUS46 KPQR 231910
RWROR

OREGON REGIONAL WEATHER ROUNDUP
NATIONAL WEATHER SERVICE PORTLAND OR
1200 PM PDT TUE MAY 23 2017

NOTE: "FAIR" INDICATES FEW OR NO CLOUDS BELOW 12,000 FEET WITH
NO SIGNIFICANT WEATHER AND/OR OBSTRUCTIONS TO VISIBILITY.

ORZ001>013-232000-
NORTHWEST OREGON


CITY           SKY/WX    TMP DP  RH WIND       PRES   REMARKS
ASTORIA        CLOUDY    59  51  75 NW15      30.12R
NEWPORT        CLOUDY    57  52  82 N21G28    30.13R
PORTLAND       MOSUNNY   79  49  34 W9        29.99F
VANCOUVER WA   SUNNY     79  53  40 W8        29.99F
SCAPPOOSE      SUNNY     79  55  43 E6        29.98F
HILLSBORO      SUNNY     81  52  36 W7        29.99F
AURORA         MOSUNNY   82  54  37 VRB5      30.01F
MCMINNVILLE    SUNNY     79  56  45 SW3       30.01F
SALEM          SUNNY     81  56  42 N5        30.00F
CORVALLIS      SUNNY     82  59  44 CALM      30.03S
EUGENE         MOSUNNY   78  58  49 N8        30.02S
$$

ORZ021-028-232000-
SOUTHWEST OREGON


CITY           SKY/WX    TMP DP  RH WIND       PRES   REMARKS
NORTH BEND     SUNNY     59  54  82 N22G31    30.10R
BROOKINGS      MOSUNNY   70  57  63 SW5       29.98S
ROSEBURG       SUNNY     84  56  38 N8        29.99F
SEXTON SUMMIT  SUNNY     76  51  41 VRB6      30.13S
MEDFORD        SUNNY     84  54  35 N5        29.98F
$$

ORZ014>016-041-232000-
COLUMBIA GORGE


CITY           SKY/WX    TMP DP  RH WIND       PRES   REMARKS
TROUTDALE      SUNNY     77  55  46 VRB6      29.99F
HOOD RIVER     SUNNY     81  54  39 CALM      29.94F
THE DALLES     SUNNY     84  52  33 VRB3      29.91F
$$

ORZ029>031-041-044-049-050-061>064-502-503-505>511-232000-
EASTERN OREGON


CITY           SKY/WX    TMP DP  RH WIND       PRES   REMARKS
REDMOND        SUNNY     84  39  20 NW7       30.04F
BEND           SUNNY     82  41  23 NW5       30.00F
PRINEVILLE     SUNNY     81  46  30 MISG      30.06F
KLAMATH FALLS  SUNNY     80  45  28 VRB5      30.12F
HERMISTON      SUNNY     85  48  27 VRB5      29.92F
PENDLETON      SUNNY     82  46  28 VRB3      29.95F
JOHN DAY       SUNNY     81  48  31 CALM      30.08F
MEACHAM        SUNNY     78  28  16 CALM      30.08F
LA GRANDE      SUNNY     75  52  43 CALM      30.03F
BAKER CITY     SUNNY     77  51  40 W6        30.06F
BURNS          SUNNY     76  38  25 SE9       30.13F
ROME             N/A     83  31  15 VRB3      30.11F
ONTARIO        SUNNY     80  47  31 SE8G17    30.07F
$$




USA.gov is the U.S. government's official web portal to all federal, state and local government web resources and services.